File downld08.txt from Nest Egg
Temp Hi Low Out Dew Wind Wind Wind Hi Hi Wind Heat THW Rain Heat Cool In In In In Wind Wind ISS Arc.
Date Time Out Temp Temp Hum Pt. Speed Dir Run Speed Dir Chill Index Index Bar Rain Rate D-D D-D Temp Hum Dew Heat Samp Tx Recept Int.
-----------------------------------------------------------------------------------------------------------------------------------------------------------------------------------------------
4/29/26 12:30a 45.2 46.5 45.2 63 33.3 3.0 SSE 1.50 7.0 SSE 44.2 44.5 43.5 30.082 0.00 0.00 0.412 0.000 68.5 35 39.8 65.6 700 1 100.0 30
4/29/26 1:00a 41.3 45.2 41.3 67 31.2 1.0 SSW 0.50 2.0 SSW 41.3 40.6 40.6 30.090 0.00 0.00 0.494 0.000 68.2 36 40.2 65.5 696 1 100.0 30
4/29/26 1:30a 40.1 41.3 40.1 71 31.4 0.0 SSW 0.00 2.0 SSW 40.1 39.5 39.5 30.078 0.00 0.00 0.519 0.000 67.9 36 39.9 65.2 698 1 100.0 30
4/29/26 2:00a 38.8 40.2 38.8 75 31.6 1.0 SW 0.50 2.0 SSW 38.8 38.4 38.4 30.090 0.00 0.00 0.546 0.000 67.5 36 39.6 64.8 699 1 100.0 30
4/29/26 2:30a 38.4 38.9 38.4 80 32.8 0.0 WNW 0.00 2.0 WNW 38.4 38.1 38.1 30.060 0.00 0.00 0.554 0.000 67.1 37 39.9 64.4 700 1 100.0 30
4/29/26 3:00a 37.9 38.4 37.9 82 32.9 0.0 WNW 0.00 2.0 WNW 37.9 37.6 37.6 30.038 0.00 0.00 0.565 0.000 66.7 37 39.6 64.0 700 1 100.0 30
4/29/26 3:30a 37.7 38.0 37.6 83 33.0 0.0 WNW 0.00 2.0 WNW 37.7 37.5 37.5 30.026 0.00 0.00 0.569 0.000 66.4 37 39.3 63.6 700 1 100.0 30
4/29/26 4:00a 37.0 37.7 37.0 85 32.9 0.0 SSW 0.00 1.0 SSW 37.0 36.8 36.8 30.029 0.00 0.00 0.583 0.000 66.0 37 39.0 63.2 702 1 100.0 30
4/29/26 4:30a 36.6 37.0 36.6 86 32.8 0.0 WSW 0.00 1.0 WSW 36.6 36.4 36.4 30.026 0.00 0.00 0.592 0.000 65.4 37 38.4 62.6 699 1 100.0 30
4/29/26 5:00a 36.1 36.6 36.0 88 32.9 0.0 --- 0.00 0.0 --- 36.1 36.0 36.0 30.027 0.00 0.00 0.602 0.000 64.9 37 38.0 62.1 697 1 100.0 30
4/29/26 5:30a 36.3 36.3 36.1 90 33.6 0.0 WSW 0.00 1.0 WSW 36.3 36.2 36.2 30.037 0.00 0.00 0.598 0.000 64.6 37 37.7 61.8 697 1 100.0 30
4/29/26 6:00a 37.9 37.9 36.3 90 35.2 0.0 WSW 0.00 2.0 WSW 37.9 37.8 37.8 30.037 0.00 0.00 0.565 0.000 64.2 37 37.4 61.3 703 1 100.0 30
4/29/26 6:30a 41.5 41.5 37.9 89 38.5 2.0 SE 1.00 4.0 SE 41.5 41.4 41.4 30.044 0.00 0.00 0.490 0.000 66.1 36 38.4 63.2 700 1 100.0 30
4/29/26 7:00a 42.5 42.6 41.5 87 38.9 3.0 SE 1.50 7.0 SSE 41.2 42.4 41.1 30.046 0.00 0.00 0.469 0.000 65.6 36 37.9 62.7 700 1 100.0 30
4/29/26 7:30a 42.9 42.9 42.4 87 39.3 3.0 SSE 1.50 7.0 SSE 41.7 42.8 41.6 30.040 0.00 0.00 0.460 0.000 65.0 37 38.1 62.2 698 1 100.0 30
4/29/26 8:00a 43.6 43.6 42.9 87 40.0 3.0 SSE 1.50 6.0 SSE 42.5 43.6 42.5 30.030 0.00 0.00 0.446 0.000 64.8 37 37.9 62.0 702 1 100.0 30
4/29/26 8:30a 45.1 45.2 43.5 84 40.6 2.0 SSE 1.00 7.0 SSE 45.1 45.0 45.0 30.025 0.00 0.00 0.415 0.000 65.0 37 38.1 62.2 696 1 100.0 30
4/29/26 9:00a 48.5 48.5 45.1 80 42.6 2.0 SE 1.00 5.0 S 48.5 48.4 48.4 30.013 0.00 0.00 0.344 0.000 65.5 37 38.5 62.7 696 1 100.0 30
4/29/26 9:30a 49.0 49.7 48.5 77 42.1 2.0 SE 1.00 5.0 SSE 49.0 48.8 48.8 29.987 0.00 0.00 0.333 0.000 66.3 36 38.5 63.4 701 1 100.0 30
4/29/26 10:00a 53.2 53.2 49.0 68 42.9 3.0 SE 1.50 8.0 SSE 53.2 52.4 52.4 29.977 0.00 0.00 0.246 0.000 67.2 36 39.3 64.4 700 1 100.0 30
4/29/26 10:30a 55.6 55.6 53.2 64 43.6 3.0 SE 1.50 9.0 SSE 55.6 54.4 54.4 29.961 0.00 0.00 0.196 0.000 67.9 36 39.9 65.2 699 1 100.0 30
4/29/26 11:00a 58.0 58.0 55.6 60 44.2 3.0 SSE 1.50 7.0 SSE 58.0 56.6 56.6 29.940 0.00 0.00 0.146 0.000 69.8 37 42.3 67.0 698 1 100.0 30
4/29/26 11:30a 59.1 59.1 57.3 60 45.2 5.0 SSE 2.50 13.0 SSE 58.9 57.7 57.5 29.936 0.00 0.00 0.123 0.000 72.1 37 44.4 70.1 702 1 100.0 30
4/29/26 12:00p 61.4 61.4 59.0 57 46.0 4.0 SSE 2.00 12.0 SSE 61.4 59.9 59.9 29.926 0.00 0.00 0.075 0.000 74.0 36 45.3 72.6 702 1 100.0 30
4/29/26 12:30p 62.6 64.1 61.4 53 45.2 4.0 SE 2.00 10.0 SSE 62.6 60.9 60.9 29.922 0.00 0.00 0.050 0.000 75.2 36 46.4 73.9 702 1 100.0 30
4/29/26 1:00p 63.3 63.3 61.6 53 45.9 6.0 SSE 3.00 15.0 SSE 63.3 61.7 61.7 29.908 0.00 0.00 0.035 0.000 75.8 37 47.7 74.5 700 1 100.0 30
4/29/26 1:30p 63.9 64.4 63.2 53 46.4 5.0 SSE 2.50 15.0 SSE 63.9 62.3 62.3 29.904 0.00 0.00 0.023 0.000 75.8 37 47.7 74.5 700 1 100.0 30
4/29/26 2:00p 62.0 63.9 61.8 61 48.4 9.0 SSE 4.50 17.0 SSE 60.0 60.8 58.8 29.897 0.00 0.00 0.063 0.000 75.9 37 47.8 74.6 699 1 100.0 30
4/29/26 2:30p 62.5 62.7 61.9 59 48.0 10.0 SSE 5.00 19.0 SSE 59.9 61.2 58.6 29.889 0.00 0.00 0.052 0.000 76.0 37 47.8 74.7 702 1 100.0 30
4/29/26 3:00p 62.2 63.0 62.2 59 47.7 13.0 SE 6.50 19.0 SE 57.8 60.9 56.5 29.881 0.00 0.00 0.058 0.000 76.0 37 47.8 74.7 700 1 100.0 30
4/29/26 3:30p 62.0 63.4 62.0 60 48.0 13.0 SE 6.50 21.0 SSE 57.6 60.7 56.3 29.858 0.00 0.00 0.063 0.000 75.8 37 47.7 74.5 701 1 100.0 30
4/29/26 4:00p 61.7 62.0 61.6 61 48.1 11.0 SSE 5.50 19.0 S 58.3 60.5 57.1 29.849 0.00 0.00 0.069 0.000 75.5 37 47.4 74.2 699 1 100.0 30
4/29/26 4:30p 61.5 61.9 61.2 61 47.9 11.0 SSE 5.50 19.0 SSE 58.1 60.2 56.8 29.850 0.00 0.00 0.073 0.000 75.2 37 47.1 73.9 701 1 100.0 30
4/29/26 5:00p 60.7 61.5 60.7 62 47.6 13.0 SE 6.50 19.0 SE 56.1 59.4 54.8 29.854 0.00 0.00 0.090 0.000 74.8 37 46.8 73.5 702 1 100.0 30
4/29/26 5:30p 60.4 60.7 60.3 60 46.4 13.0 SE 6.50 18.0 SE 55.7 59.0 54.3 29.842 0.00 0.00 0.096 0.000 74.4 37 46.4 73.1 698 1 100.0 30
4/29/26 6:00p 59.7 60.4 59.7 62 46.7 13.0 SE 6.50 20.0 SSE 54.9 58.4 53.6 29.834 0.00 0.00 0.110 0.000 74.0 37 46.1 72.6 701 1 100.0 30
4/29/26 6:30p 59.1 59.8 58.9 63 46.5 12.0 SE 6.00 18.0 SE 54.7 57.9 53.5 29.836 0.00 0.00 0.123 0.000 73.6 37 45.7 72.2 701 1 100.0 30
4/29/26 7:00p 58.6 59.1 58.5 63 46.0 12.0 SE 6.00 18.0 SE 54.2 57.4 53.0 29.834 0.00 0.00 0.133 0.000 73.3 37 45.4 71.8 698 1 100.0 30
4/29/26 7:30p 57.8 58.6 57.8 64 45.7 12.0 SSE 6.00 17.0 SSE 53.3 56.6 52.1 29.835 0.00 0.00 0.150 0.000 72.9 37 45.1 71.3 699 1 100.0 30
4/29/26 8:00p 57.2 57.8 57.2 70 47.5 11.0 SE 5.50 17.0 SE 53.1 56.3 52.2 29.828 0.00 0.00 0.162 0.000 72.6 38 45.5 70.9 702 1 100.0 30
4/29/26 8:30p 56.0 57.2 56.0 74 47.8 13.0 SSE 6.50 17.0 S 50.7 55.3 50.0 29.834 0.00 0.00 0.188 0.000 72.3 39 45.9 70.6 700 1 100.0 30
4/29/26 9:00p 54.7 56.0 54.7 78 48.0 11.0 SE 5.50 17.0 SSE 50.2 54.3 49.8 29.831 0.00 0.00 0.215 0.000 71.9 39 45.6 70.0 702 1 100.0 30
4/29/26 9:30p 53.3 54.7 53.3 80 47.3 11.0 SE 5.50 18.0 SSE 48.6 53.0 48.3 29.838 0.00 0.00 0.244 0.000 71.6 39 45.3 69.6 702 1 100.0 30
4/29/26 10:00p 51.9 53.3 51.9 81 46.3 9.0 SE 4.50 13.0 SE 48.1 51.7 47.9 29.833 0.00 0.00 0.273 0.000 71.2 39 45.0 69.0 701 1 100.0 30
4/29/26 10:30p 50.0 51.9 50.0 85 45.7 12.0 SSE 6.00 16.0 SSE 44.3 50.1 44.4 29.838 0.00 0.00 0.313 0.000 70.9 39 44.7 68.6 703 1 100.0 30
4/29/26 11:00p 48.3 50.1 48.3 87 44.6 10.0 SSE 5.00 17.0 SE 43.3 48.4 43.4 29.835 0.00 0.00 0.348 0.000 70.3 39 44.2 67.8 699 1 100.0 30
4/29/26 11:30p 47.3 48.4 47.3 88 43.9 9.0 SSE 4.50 15.0 SSE 42.7 47.4 42.8 29.833 0.00 0.00 0.369 0.000 69.9 39 43.8 67.3 702 1 100.0 30
4/30/26 12:00a 47.0 47.3 46.9 89 43.9 8.0 SE 4.00 13.0 SSE 42.9 47.2 43.1 29.828 0.00 0.00 0.375 0.000 69.4 40 44.0 66.9 700 1 100.0 30
4/30/26 12:30a 46.7 47.1 46.5 90 43.9 8.0 SE 4.00 13.0 SSE 42.6 46.9 42.8 29.820 0.00 0.00 0.381 0.000 69.1 40 43.8 66.6 697 1 100.0 30
4/30/26 1:00a 46.5 46.8 46.4 89 43.4 7.0 SE 3.50 11.0 SSE 43.0 46.6 43.1 29.808 0.00 0.00 0.385 0.000 68.6 40 43.3 66.2 701 1 100.0 30
4/30/26 1:30a 46.2 46.5 46.1 91 43.7 5.0 SSE 2.50 11.0 SSE 43.7 46.4 43.9 29.802 0.00 0.00 0.392 0.000 68.3 40 43.0 65.9 698 1 100.0 30
4/30/26 2:00a 45.9 46.3 45.9 92 43.7 5.0 SE 2.50 8.0 SSE 43.4 46.1 43.6 29.791 0.01 0.00 0.398 0.000 67.9 40 42.7 65.6 700 1 100.0 30
4/30/26 2:30a 45.4 46.0 45.4 93 43.5 4.0 SSE 2.00 8.0 SSE 43.5 45.6 43.7 29.778 0.04 0.09 0.408 0.000 67.6 40 42.4 65.3 702 1 100.0 30
4/30/26 3:00a 45.4 45.7 45.2 94 43.8 4.0 SE 2.00 7.0 SE 43.5 45.6 43.7 29.769 0.04 0.11 0.408 0.000 67.2 40 42.0 64.8 703 1 100.0 30
4/30/26 3:30a 45.4 45.6 45.2 94 43.8 5.0 SE 2.50 8.0 SSE 42.8 45.6 43.0 29.758 0.04 0.09 0.408 0.000 66.9 41 42.4 64.6 700 1 100.0 30
4/30/26 4:00a 45.3 45.5 45.2 95 44.0 5.0 SE 2.50 10.0 SE 42.7 45.5 42.9 29.762 0.04 0.09 0.410 0.000 66.6 41 42.2 64.3 698 1 100.0 30
4/30/26 4:30a 45.1 45.4 45.1 95 43.8 1.0 SSE 0.50 5.0 SE 45.1 45.3 45.3 29.755 0.05 0.15 0.415 0.000 66.5 40 41.4 64.1 701 1 100.0 30
4/30/26 5:00a 45.2 45.3 45.0 95 43.9 2.0 SSE 1.00 7.0 SSE 45.2 45.4 45.4 29.747 0.00 0.00 0.412 0.000 66.2 41 41.8 63.8 700 1 100.0 30
4/30/26 5:30a 45.3 45.5 45.2 96 44.2 4.0 SE 2.00 7.0 SE 43.4 45.6 43.7 29.739 0.01 0.00 0.410 0.000 66.0 41 41.6 63.6 700 1 100.0 30
4/30/26 6:00a 45.3 45.4 45.2 95 44.0 4.0 SSE 2.00 8.0 SE 43.4 45.5 43.6 29.731 0.01 0.00 0.410 0.000 65.7 41 41.3 63.3 699 1 100.0 30
4/30/26 6:30a 45.2 45.4 45.1 95 43.9 5.0 SSE 2.50 8.0 SSE 42.5 45.4 42.7 29.734 0.01 0.00 0.412 0.000 65.5 41 41.2 63.1 702 1 100.0 30
4/30/26 7:00a 45.4 45.5 45.0 95 44.1 3.0 SSE 1.50 8.0 SSE 44.5 45.6 44.7 29.741 0.01 0.00 0.408 0.000 65.3 41 41.0 62.9 700 1 100.0 30
4/30/26 7:30a 45.5 45.6 45.2 95 44.2 2.0 SSE 1.00 6.0 SSE 45.5 45.8 45.8 29.733 0.00 0.00 0.406 0.000 65.2 41 40.9 62.8 700 1 100.0 30
4/30/26 8:00a 46.0 46.0 45.5 95 44.6 4.0 SSE 2.00 7.0 SSE 44.2 46.3 44.5 29.731 0.01 0.00 0.396 0.000 65.1 41 40.8 62.7 694 1 100.0 30
4/30/26 8:30a 46.8 46.8 45.9 96 45.7 5.0 SSE 2.50 9.0 SSE 44.5 47.1 44.8 29.726 0.00 0.00 0.379 0.000 65.1 41 40.8 62.7 701 1 100.0 30
4/30/26 9:00a 47.1 47.1 46.6 95 45.7 4.0 SE 2.00 8.0 SSE 45.5 47.4 45.8 29.716 0.00 0.00 0.373 0.000 65.0 42 41.3 62.7 700 1 100.0 30
4/30/26 9:30a 47.6 47.6 47.0 95 46.2 4.0 SSE 2.00 9.0 SSE 46.1 48.0 46.5 29.708 0.00 0.00 0.363 0.000 65.0 42 41.3 62.7 697 1 100.0 30
4/30/26 10:00a 47.8 47.9 47.5 94 46.2 4.0 SSE 2.00 10.0 SSE 46.4 48.1 46.7 29.714 0.00 0.00 0.358 0.000 64.9 42 41.2 62.6 698 1 100.0 30
4/30/26 10:30a 48.0 48.1 47.8 95 46.6 7.0 SSE 3.50 12.0 SSE 44.8 48.4 45.2 29.712 0.00 0.00 0.354 0.000 64.7 42 41.1 62.3 695 1 100.0 30
4/30/26 11:00a 47.9 48.1 47.8 95 46.5 4.0 SSE 2.00 8.0 SSE 46.5 48.3 46.9 29.712 0.00 0.00 0.356 0.000 64.5 42 40.9 62.1 697 1 100.0 30
4/30/26 11:30a 48.0 48.1 47.9 96 46.9 7.0 SSE 3.50 10.0 SSE 44.8 48.4 45.2 29.716 0.00 0.00 0.354 0.000 64.5 43 41.5 62.2 701 1 100.0 30
4/30/26 12:00p 48.1 48.2 47.9 96 47.0 5.0 SSE 2.50 9.0 SSE 46.0 48.5 46.4 29.714 0.00 0.00 0.352 0.000 64.4 43 41.4 62.1 702 1 100.0 30
4/30/26 12:30p 48.5 48.5 48.0 96 47.4 3.0 SSE 1.50 7.0 SSE 48.0 49.0 48.5 29.704 0.00 0.00 0.344 0.000 64.4 43 41.4 62.1 700 1 100.0 30
4/30/26 1:00p 49.1 49.1 48.4 96 48.0 3.0 SSE 1.50 7.0 SSE 48.6 49.6 49.1 29.704 0.00 0.00 0.331 0.000 64.4 43 41.4 62.1 698 1 100.0 30
4/30/26 1:30p 49.6 49.7 49.1 96 48.5 2.0 SSE 1.00 5.0 SSE 49.6 50.1 50.1 29.697 0.01 0.00 0.321 0.000 64.4 43 41.4 62.1 702 1 100.0 30
4/30/26 2:00p 50.3 50.3 49.6 96 49.2 1.0 SE 0.50 3.0 SE 50.3 50.8 50.8 29.682 0.00 0.00 0.306 0.000 64.4 43 41.4 62.1 697 1 100.0 30
4/30/26 2:30p 50.3 50.8 50.2 95 48.9 1.0 SE 0.50 3.0 ESE 50.3 50.8 50.8 29.680 0.01 0.00 0.306 0.000 64.5 43 41.5 62.2 702 1 100.0 30
4/30/26 3:00p 50.7 50.7 50.2 96 49.6 1.0 SSE 0.50 2.0 SSE 50.7 51.2 51.2 29.678 0.00 0.00 0.298 0.000 64.5 43 41.5 62.2 699 1 100.0 30
4/30/26 3:30p 51.0 51.0 50.6 95 49.6 0.0 W 0.00 2.0 WSW 51.0 51.4 51.4 29.678 0.00 0.00 0.292 0.000 64.5 42 40.9 62.1 701 1 100.0 30
4/30/26 4:00p 50.6 51.2 50.6 95 49.2 1.0 SSE 0.50 5.0 SSE 50.6 51.0 51.0 29.681 0.00 0.00 0.300 0.000 64.6 42 41.0 62.2 698 1 100.0 30
4/30/26 4:30p 50.6 50.7 50.4 95 49.2 2.0 SSE 1.00 3.0 SSE 50.6 51.0 51.0 29.681 0.00 0.00 0.300 0.000 64.6 43 41.6 62.3 699 1 100.0 30
4/30/26 5:00p 51.2 51.2 50.6 95 49.8 2.0 SSE 1.00 3.0 SSE 51.2 51.6 51.6 29.684 0.00 0.00 0.287 0.000 64.6 43 41.6 62.3 700 1 100.0 30
4/30/26 5:30p 52.0 52.0 51.1 95 50.6 1.0 SSE 0.50 5.0 SSE 52.0 52.4 52.4 29.693 0.00 0.00 0.271 0.000 64.6 43 41.6 62.3 702 1 100.0 30
4/30/26 6:00p 52.0 52.0 51.7 95 50.6 1.0 SSE 0.50 5.0 SSE 52.0 52.4 52.4 29.690 0.00 0.00 0.271 0.000 64.6 43 41.6 62.3 701 1 100.0 30
4/30/26 6:30p 51.8 52.1 51.8 96 50.7 0.0 W 0.00 3.0 W 51.8 52.2 52.2 29.701 0.03 0.11 0.275 0.000 64.4 42 40.8 62.0 696 1 100.0 30
4/30/26 7:00p 51.3 51.8 51.3 96 50.2 0.0 W 0.00 2.0 WNW 51.3 51.7 51.7 29.712 0.00 0.00 0.285 0.000 64.7 42 41.1 62.3 697 1 100.0 30
4/30/26 7:30p 50.4 51.4 50.4 95 49.0 1.0 NW 0.50 4.0 W 50.4 50.9 50.9 29.722 0.00 0.00 0.304 0.000 64.4 42 40.8 62.0 701 1 100.0 30
4/30/26 8:00p 49.4 50.4 49.4 95 48.0 1.0 NW 0.50 4.0 WSW 49.4 49.9 49.9 29.726 0.00 0.00 0.325 0.000 64.3 42 40.7 61.9 703 1 100.0 30
4/30/26 8:30p 48.8 49.4 48.7 96 47.7 0.0 NW 0.00 2.0 NW 48.8 49.3 49.3 29.738 0.00 0.00 0.338 0.000 64.2 42 40.6 61.8 702 1 100.0 30
4/30/26 9:00p 48.2 48.7 48.2 96 47.1 0.0 WNW 0.00 2.0 WNW 48.2 48.7 48.7 29.749 0.00 0.00 0.350 0.000 64.0 42 40.4 61.6 698 1 100.0 30
4/30/26 9:30p 47.9 48.3 47.8 96 46.8 1.0 NW 0.50 5.0 NW 47.9 48.3 48.3 29.763 0.01 0.00 0.356 0.000 63.9 42 40.3 61.5 700 1 100.0 30
4/30/26 10:00p 47.4 47.9 47.4 95 46.0 1.0 NW 0.50 5.0 NNW 47.4 47.7 47.7 29.770 0.00 0.00 0.367 0.000 63.8 42 40.3 61.3 696 1 100.0 30
4/30/26 10:30p 46.6 47.5 46.6 93 44.7 2.0 NW 1.00 6.0 NNE 46.6 46.8 46.8 29.769 0.00 0.00 0.383 0.000 63.7 42 40.2 61.2 699 1 100.0 30
4/30/26 11:00p 45.6 46.6 45.6 92 43.4 2.0 NW 1.00 7.0 W 45.6 45.8 45.8 29.772 0.00 0.00 0.404 0.000 63.5 42 40.0 61.0 697 1 100.0 30
4/30/26 11:30p 45.2 45.6 45.1 91 42.7 2.0 NW 1.00 7.0 W 45.2 45.3 45.3 29.773 0.00 0.00 0.412 0.000 63.3 42 39.8 60.8 700 1 100.0 30
5/01/26 12:00a 44.9 45.2 44.9 90 42.1 2.0 NNW 1.00 9.0 NNE 44.9 45.0 45.0 29.776 0.00 0.00 0.419 0.000 63.2 42 39.7 60.7 701 1 100.0 30
5/01/26 12:30a 44.6 45.1 44.6 89 41.6 2.0 NNW 1.00 7.0 NNE 44.6 44.7 44.7 29.784 0.00 0.00 0.425 0.000 62.9 42 39.4 60.4 694 1 100.0 30
5/01/26 1:00a 44.0 44.6 44.0 89 41.0 2.0 NNW 1.00 5.0 NNW 44.0 44.1 44.1 29.788 0.00 0.00 0.438 0.000 62.7 42 39.3 60.2 700 1 100.0 30
5/01/26 1:30a 43.7 44.0 43.6 87 40.1 1.0 NNW 0.50 6.0 W 43.7 43.7 43.7 29.787 0.00 0.00 0.444 0.000 62.5 42 39.1 60.0 700 1 100.0 30
5/01/26 2:00a 43.6 43.8 43.6 87 40.0 1.0 NW 0.50 4.0 W 43.6 43.6 43.6 29.789 0.00 0.00 0.446 0.000 62.3 41 38.3 59.7 698 1 100.0 30
5/01/26 2:30a 43.2 43.6 43.2 86 39.3 1.0 WNW 0.50 6.0 W 43.2 43.1 43.1 29.783 0.00 0.00 0.454 0.000 62.0 41 38.0 59.4 701 1 100.0 30
5/01/26 3:00a 43.0 43.3 43.0 86 39.1 2.0 NW 1.00 4.0 WNW 43.0 42.9 42.9 29.782 0.00 0.00 0.458 0.000 61.8 41 37.8 59.2 699 1 100.0 30
5/01/26 3:30a 43.0 43.2 43.0 85 38.8 2.0 NW 1.00 8.0 NW 43.0 42.9 42.9 29.789 0.00 0.00 0.458 0.000 61.6 41 37.7 59.0 700 1 100.0 30
5/01/26 4:00a 42.3 43.0 42.3 87 38.7 0.0 NW 0.00 4.0 W 42.3 42.2 42.2 29.797 0.00 0.00 0.473 0.000 61.3 41 37.4 58.7 697 1 100.0 30
5/01/26 4:30a 42.3 42.4 42.2 86 38.4 0.0 NNW 0.00 3.0 NW 42.3 42.2 42.2 29.800 0.00 0.00 0.473 0.000 61.1 41 37.2 58.5 696 1 100.0 30
5/01/26 5:00a 42.5 42.5 42.3 85 38.3 1.0 NW 0.50 4.0 WNW 42.5 42.3 42.3 29.807 0.00 0.00 0.469 0.000 60.9 41 37.0 58.3 701 1 100.0 30
5/01/26 5:30a 42.4 42.5 42.3 83 37.6 2.0 NW 1.00 6.0 W 42.4 42.2 42.2 29.806 0.00 0.00 0.471 0.000 60.8 41 36.9 58.2 700 1 100.0 30
5/01/26 6:00a 42.5 42.5 42.1 83 37.7 1.0 NW 0.50 7.0 W 42.5 42.3 42.3 29.816 0.00 0.00 0.469 0.000 60.6 41 36.8 58.0 698 1 100.0 30
5/01/26 6:30a 43.1 43.3 42.4 79 37.0 1.0 NW 0.50 5.0 NNW 43.1 42.8 42.8 29.825 0.00 0.00 0.456 0.000 61.9 39 36.7 59.1 698 1 100.0 30
5/01/26 7:00a 43.1 43.2 43.0 78 36.7 1.0 NW 0.50 4.0 N 43.1 42.8 42.8 29.830 0.00 0.00 0.456 0.000 60.9 40 36.4 58.2 696 1 100.0 30
5/01/26 7:30a 43.3 43.3 43.1 77 36.6 2.0 NW 1.00 6.0 NW 43.3 43.0 43.0 29.835 0.00 0.00 0.452 0.000 60.8 40 36.3 58.1 702 1 100.0 30
5/01/26 8:00a 45.2 45.2 43.3 74 37.4 2.0 NW 1.00 9.0 NNE 45.2 44.8 44.8 29.837 0.00 0.00 0.412 0.000 61.3 40 36.8 58.6 700 1 100.0 30
5/01/26 8:30a 47.8 47.8 45.2 70 38.5 2.0 NW 1.00 8.0 ENE 47.8 47.3 47.3 29.839 0.00 0.00 0.358 0.000 62.1 39 36.8 59.3 699 1 100.0 30
5/01/26 9:00a 47.0 48.0 46.4 67 36.6 3.0 NW 1.50 12.0 NNE 46.3 46.4 45.7 29.847 0.00 0.00 0.375 0.000 62.2 39 36.9 59.4 699 1 100.0 30
5/01/26 9:30a 47.0 47.2 46.6 69 37.4 3.0 NW 1.50 12.0 NNE 46.3 46.5 45.8 29.844 0.00 0.00 0.375 0.000 62.3 39 37.0 59.5 701 1 100.0 30
5/01/26 10:00a 50.2 50.3 46.9 60 36.8 3.0 NNW 1.50 15.0 W 49.9 49.4 49.1 29.843 0.00 0.00 0.308 0.000 63.3 39 37.9 60.5 697 1 100.0 30
5/01/26 10:30a 51.3 51.3 49.6 55 35.7 5.0 NW 2.50 17.0 NNW 49.8 50.1 48.6 29.840 0.00 0.00 0.285 0.000 64.1 38 38.0 61.3 701 1 100.0 30
5/01/26 11:00a 52.8 52.9 51.3 51 35.2 4.0 NW 2.00 14.0 W 52.1 51.3 50.6 29.837 0.00 0.00 0.254 0.000 64.9 38 38.7 62.2 701 1 100.0 30
5/01/26 11:30a 53.4 54.0 52.8 51 35.7 4.0 NNW 2.00 11.0 NW 52.8 51.8 51.2 29.830 0.00 0.00 0.242 0.000 65.6 38 39.3 62.9 700 1 100.0 30
5/01/26 12:00p 55.6 55.6 53.3 51 37.7 4.0 NW 2.00 13.0 NNE 55.3 53.8 53.5 29.821 0.00 0.00 0.196 0.000 66.4 37 39.3 63.6 698 1 100.0 30
5/01/26 12:30p 54.7 56.5 54.3 49 35.9 3.0 NW 1.50 9.0 NNW 54.7 52.9 52.9 29.814 0.00 0.00 0.215 0.000 66.8 37 39.7 64.1 701 1 100.0 30
5/01/26 1:00p 56.8 56.8 54.8 46 36.2 3.0 NNW 1.50 10.0 NW 56.8 54.6 54.6 29.814 0.00 0.00 0.171 0.000 66.5 38 40.1 63.8 700 1 100.0 30
5/01/26 1:30p 56.6 57.0 56.1 44 34.9 4.0 NW 2.00 12.0 W 56.5 54.3 54.2 29.814 0.00 0.00 0.175 0.000 66.6 38 40.2 64.0 700 1 100.0 30
5/01/26 2:00p 56.2 57.4 56.2 40 32.2 4.0 NW 2.00 13.0 WNW 56.0 53.8 53.6 29.817 0.00 0.00 0.183 0.000 66.6 38 40.2 64.0 701 1 100.0 30
5/01/26 2:30p 57.8 58.3 55.8 38 32.3 3.0 NW 1.50 11.0 NNE 57.8 55.1 55.1 29.811 0.00 0.00 0.150 0.000 66.6 38 40.2 64.0 698 1 100.0 30
5/01/26 3:00p 59.0 59.0 57.0 37 32.7 3.0 NW 1.50 9.0 N 59.0 56.2 56.2 29.804 0.00 0.00 0.125 0.000 68.9 39 42.9 66.3 699 1 100.0 30
5/01/26 3:30p 59.3 59.6 58.4 37 33.0 3.0 NW 1.50 9.0 W 59.3 56.4 56.4 29.792 0.00 0.00 0.119 0.000 71.0 38 44.1 68.6 699 1 100.0 30
5/01/26 4:00p 58.8 59.7 58.7 38 33.2 3.0 WNW 1.50 9.0 W 58.8 56.0 56.0 29.792 0.00 0.00 0.129 0.000 72.0 38 45.0 70.0 701 1 100.0 30
5/01/26 4:30p 59.9 60.0 58.6 38 34.2 3.0 NW 1.50 9.0 WNW 59.9 57.1 57.1 29.792 0.00 0.00 0.106 0.000 72.9 38 45.8 71.4 700 1 100.0 30
5/01/26 5:00p 58.3 59.9 57.7 39 33.4 2.0 WNW 1.00 8.0 NW 58.3 55.6 55.6 29.801 0.00 0.00 0.140 0.000 73.6 38 46.4 72.2 700 1 100.0 30
5/01/26 5:30p 58.0 58.6 57.5 40 33.8 2.0 WNW 1.00 10.0 W 58.0 55.4 55.4 29.796 0.00 0.00 0.146 0.000 74.2 38 47.0 72.9 698 1 100.0 30
5/01/26 6:00p 57.6 58.0 57.4 41 34.1 2.0 W 1.00 9.0 W 57.6 55.1 55.1 29.796 0.00 0.00 0.154 0.000 74.7 38 47.4 73.4 699 1 100.0 30
5/01/26 6:30p 56.8 57.6 56.8 49 37.8 1.0 NW 0.50 5.0 NNW 56.8 54.8 54.8 29.797 0.00 0.00 0.171 0.000 74.9 38 47.6 73.7 700 1 100.0 30
5/01/26 7:00p 53.8 56.8 53.8 57 38.9 0.0 WNW 0.00 2.0 NNW 53.8 52.4 52.4 29.811 0.00 0.00 0.233 0.000 75.4 38 48.0 74.2 700 1 100.0 30
5/01/26 7:30p 50.8 53.8 50.7 62 38.2 0.0 WNW 0.00 3.0 WSW 50.8 50.0 50.0 29.821 0.00 0.00 0.296 0.000 75.4 38 48.0 74.2 700 1 100.0 30
5/01/26 8:00p 47.9 50.7 47.9 66 37.1 0.0 NW 0.00 2.0 NW 47.9 47.2 47.2 29.840 0.00 0.00 0.356 0.000 75.6 38 48.2 74.4 698 1 100.0 30
5/01/26 8:30p 46.3 47.9 46.3 69 36.7 0.0 NW 0.00 2.0 NW 46.3 45.8 45.8 29.854 0.00 0.00 0.390 0.000 75.4 38 48.0 74.2 700 1 100.0 30
5/01/26 9:00p 44.6 46.3 44.6 72 36.1 0.0 NW 0.00 3.0 NW 44.6 44.1 44.1 29.860 0.00 0.00 0.425 0.000 75.5 38 48.1 74.3 700 1 100.0 30
5/01/26 9:30p 43.9 44.6 43.8 73 35.8 1.0 NW 0.50 2.0 NW 43.9 43.5 43.5 29.860 0.00 0.00 0.440 0.000 75.4 38 48.0 74.2 702 1 100.0 30
5/01/26 10:00p 45.5 45.5 43.8 73 37.3 1.0 NW 0.50 3.0 NW 45.5 45.1 45.1 29.858 0.00 0.00 0.406 0.000 75.3 38 47.9 74.1 700 1 100.0 30
5/01/26 10:30p 45.9 46.1 45.5 74 38.1 0.0 NW 0.00 2.0 NW 45.9 45.5 45.5 29.861 0.00 0.00 0.398 0.000 75.3 38 47.9 74.1 700 1 100.0 30
5/01/26 11:00p 46.3 46.3 45.9 74 38.5 0.0 --- 0.00 0.0 --- 46.3 45.9 45.9 29.862 0.00 0.00 0.390 0.000 75.2 38 47.8 74.0 700 1 100.0 30
5/01/26 11:30p 46.5 46.6 46.2 74 38.7 0.0 NW 0.00 1.0 NW 46.5 46.1 46.1 29.859 0.00 0.00 0.385 0.000 74.6 37 46.6 73.3 700 1 100.0 30
5/02/26 12:00a 46.0 46.4 46.0 72 37.5 0.0 --- 0.00 0.0 --- 46.0 45.5 45.5 29.864 0.00 0.00 0.396 0.000 74.0 38 46.8 72.7 701 1 100.0 30
5/02/26 12:30a 46.2 46.4 46.0 81 40.7 0.0 WNW 0.00 3.0 WNW 46.2 46.0 46.0 29.879 0.00 0.00 0.392 0.000 73.4 38 46.2 72.0 702 1 100.0 30
5/02/26 1:00a 44.7 46.3 44.7 91 42.2 1.0 WNW 0.50 4.0 SSE 44.7 44.8 44.8 29.888 0.01 0.00 0.423 0.000 72.8 38 45.7 71.2 697 1 100.0 30
5/02/26 1:30a 44.5 44.8 44.4 93 42.6 0.0 --- 0.00 0.0 --- 44.5 44.7 44.7 29.886 0.00 0.00 0.427 0.000 72.3 38 45.3 70.5 701 1 100.0 30
5/02/26 2:00a 44.0 44.6 43.9 94 42.4 0.0 N 0.00 3.0 NE 44.0 44.2 44.2 29.879 0.02 0.11 0.438 0.000 71.8 38 44.8 69.8 698 1 100.0 30
5/02/26 2:30a 43.7 44.0 43.6 95 42.4 0.0 WNW 0.00 3.0 WNW 43.7 43.9 43.9 29.868 0.03 0.11 0.444 0.000 71.1 38 44.2 68.8 701 1 100.0 30
5/02/26 3:00a 43.5 43.7 43.4 95 42.2 0.0 NW 0.00 2.0 NW 43.5 43.7 43.7 29.870 0.02 0.06 0.448 0.000 70.7 39 44.5 68.3 697 1 100.0 30
5/02/26 3:30a 43.3 43.6 43.3 95 42.0 0.0 WNW 0.00 2.0 WNW 43.3 43.4 43.4 29.867 0.03 0.08 0.452 0.000 70.3 39 44.2 67.8 702 1 100.0 30
5/02/26 4:00a 43.4 43.4 43.1 96 42.3 1.0 WNW 0.50 3.0 W 43.4 43.6 43.6 29.870 0.05 0.16 0.450 0.000 69.9 39 43.8 67.3 701 1 100.0 30
5/02/26 4:30a 43.2 43.6 43.2 96 42.1 0.0 NW 0.00 2.0 NW 43.2 43.4 43.4 29.865 0.04 0.17 0.454 0.000 69.4 39 43.4 66.8 700 1 100.0 30
5/02/26 5:00a 43.8 43.8 43.1 96 42.7 2.0 SE 1.00 6.0 ESE 43.8 44.0 44.0 29.862 0.03 0.13 0.442 0.000 68.8 39 42.8 66.2 699 1 100.0 30
5/02/26 5:30a 43.7 44.1 43.6 96 42.6 2.0 ESE 1.00 5.0 SSE 43.7 43.9 43.9 29.850 0.01 0.06 0.444 0.000 68.5 40 43.2 66.1 697 1 100.0 30
5/02/26 6:00a 44.3 44.3 43.6 96 43.2 2.0 SSE 1.00 8.0 SSE 44.3 44.5 44.5 29.848 0.00 0.00 0.431 0.000 68.8 40 43.5 66.3 703 1 100.0 30
5/02/26 6:30a 44.1 44.4 44.1 95 42.8 1.0 SSE 0.50 7.0 SSE 44.1 44.3 44.3 29.862 0.01 0.00 0.435 0.000 69.4 40 44.0 66.9 698 1 100.0 30
5/02/26 7:00a 44.5 44.5 44.1 96 43.4 1.0 SSE 0.50 5.0 SSE 44.5 44.7 44.7 29.868 0.02 0.04 0.427 0.000 71.2 40 45.6 69.1 701 1 100.0 30
5/02/26 7:30a 44.9 44.9 44.4 95 43.6 3.0 SSE 1.50 6.0 SSE 43.9 45.1 44.1 29.864 0.00 0.00 0.419 0.000 72.3 40 46.6 70.7 699 1 100.0 30
5/02/26 8:00a 45.0 45.2 44.8 94 43.4 3.0 SSE 1.50 8.0 SSE 44.0 45.2 44.2 29.870 0.01 0.00 0.417 0.000 72.9 39 46.5 71.5 701 1 100.0 30
5/02/26 8:30a 45.2 45.2 44.9 94 43.6 3.0 SSE 1.50 9.0 SSE 44.2 45.4 44.4 29.867 0.00 0.00 0.412 0.000 73.7 40 47.9 72.5 700 1 100.0 30
5/02/26 9:00a 45.7 45.7 45.2 94 44.1 3.0 SSE 1.50 7.0 SSE 44.8 45.9 45.0 29.869 0.00 0.00 0.402 0.000 74.3 39 47.7 73.1 699 1 100.0 30
5/02/26 9:30a 46.5 46.5 45.7 95 45.1 2.0 SSE 1.00 6.0 SSE 46.5 46.8 46.8 29.866 0.00 0.00 0.385 0.000 74.4 39 47.8 73.2 698 1 100.0 30
5/02/26 10:00a 47.3 47.3 46.5 93 45.4 1.0 SSE 0.50 7.0 SSE 47.3 47.6 47.6 29.857 0.00 0.00 0.369 0.000 75.0 39 48.4 73.8 701 1 100.0 30
5/02/26 10:30a 47.1 47.4 47.0 94 45.5 1.0 SSE 0.50 7.0 SSE 47.1 47.4 47.4 29.859 0.01 0.00 0.373 0.000 75.5 38 48.1 74.3 702 1 100.0 30
5/02/26 11:00a 47.8 47.8 46.9 96 46.7 0.0 NE 0.00 2.0 NE 47.8 48.2 48.2 29.851 0.01 0.00 0.358 0.000 76.1 38 48.6 74.9 698 1 100.0 30
5/02/26 11:30a 48.0 49.1 47.8 92 45.8 1.0 SE 0.50 4.0 SE 48.0 48.3 48.3 29.847 0.00 0.00 0.354 0.000 77.6 37 49.3 76.2 700 1 100.0 30
5/02/26 12:00p 48.2 48.3 48.0 88 44.8 3.0 SSE 1.50 6.0 SSE 47.6 48.3 47.7 29.838 0.00 0.00 0.350 0.000 78.5 36 49.3 77.0 700 1 100.0 30
5/02/26 12:30p 49.6 49.6 48.2 85 45.3 3.0 SE 1.50 5.0 SSE 49.2 49.7 49.3 29.834 0.00 0.00 0.321 0.000 78.9 36 49.7 77.4 699 1 100.0 30
5/02/26 1:00p 49.5 49.9 49.5 82 44.2 6.0 SSE 3.00 12.0 SE 47.1 49.5 47.1 29.834 0.00 0.00 0.323 0.000 79.0 35 49.0 77.4 700 1 100.0 30
5/02/26 1:30p 49.9 49.9 49.1 86 45.9 6.0 SE 3.00 12.0 SSE 47.6 50.0 47.7 29.834 0.00 0.00 0.315 0.000 79.1 35 49.1 77.5 700 1 100.0 30
5/02/26 2:00p 51.9 51.9 49.8 83 46.9 5.0 SSE 2.50 8.0 SSE 50.5 51.8 50.4 29.823 0.00 0.00 0.273 0.000 79.2 35 49.2 77.6 699 1 100.0 30
5/02/26 2:30p 52.9 52.9 51.9 72 44.1 4.0 SSE 2.00 11.0 SSE 52.2 52.3 51.6 29.809 0.00 0.00 0.252 0.000 79.5 35 49.4 77.9 701 1 100.0 30
5/02/26 3:00p 55.8 56.4 53.0 60 42.1 3.0 WNW 1.50 9.0 SSE 55.8 54.4 54.4 29.810 0.00 0.00 0.192 0.000 80.2 34 49.3 78.4 699 1 100.0 30
5/02/26 3:30p 54.8 55.8 54.6 70 45.2 1.0 N 0.50 6.0 WNW 54.8 54.0 54.0 29.804 0.00 0.00 0.213 0.000 80.3 34 49.4 78.5 702 1 100.0 30
5/02/26 4:00p 53.3 54.9 53.3 66 42.2 2.0 NW 1.00 5.0 NW 53.3 52.4 52.4 29.805 0.00 0.00 0.244 0.000 80.2 34 49.3 78.4 702 1 100.0 30
5/02/26 4:30p 52.6 53.3 52.5 68 42.3 0.0 NW 0.00 3.0 N 52.6 51.8 51.8 29.804 0.00 0.00 0.258 0.000 80.0 34 49.1 78.2 701 1 100.0 30
5/02/26 5:00p 52.8 53.1 52.5 63 40.5 0.0 NNW 0.00 4.0 NE 52.8 51.8 51.8 29.808 0.00 0.00 0.254 0.000 79.7 34 48.8 78.0 701 1 100.0 30
5/02/26 5:30p 52.1 52.8 52.0 61 39.1 1.0 W 0.50 3.0 WNW 52.1 51.1 51.1 29.814 0.00 0.00 0.269 0.000 79.9 35 49.8 78.2 699 1 100.0 30
5/02/26 6:00p 51.2 52.1 51.2 59 37.4 1.0 WNW 0.50 4.0 WSW 51.2 50.2 50.2 29.819 0.00 0.00 0.287 0.000 79.9 34 49.0 78.2 698 1 100.0 30
5/02/26 6:30p 51.2 51.3 51.0 59 37.4 2.0 WNW 1.00 8.0 NW 51.2 50.2 50.2 29.824 0.00 0.00 0.287 0.000 80.0 33 48.3 78.2 699 1 100.0 30
5/02/26 7:00p 51.2 51.4 51.1 51 33.7 2.0 WNW 1.00 10.0 W 51.2 49.9 49.9 29.831 0.00 0.00 0.287 0.000 80.1 32 47.6 78.2 702 1 100.0 30
5/02/26 7:30p 49.4 51.2 49.4 57 34.8 2.0 WNW 1.00 7.0 WSW 49.4 48.5 48.5 29.842 0.00 0.00 0.325 0.000 79.8 31 46.5 77.9 702 1 100.0 30
5/02/26 8:00p 46.9 49.4 46.9 60 33.7 1.0 NW 0.50 4.0 WNW 46.9 46.1 46.1 29.852 0.00 0.00 0.377 0.000 79.7 31 46.4 77.8 700 1 100.0 30
5/02/26 8:30p 44.0 46.9 44.0 75 36.6 0.0 NW 0.00 3.0 W 44.0 43.6 43.6 29.859 0.00 0.00 0.438 0.000 79.9 31 46.6 78.0 698 1 100.0 30
5/02/26 9:00p 42.3 44.1 42.3 76 35.3 0.0 NW 0.00 2.0 NW 42.3 41.9 41.9 29.867 0.00 0.00 0.473 0.000 79.6 30 45.4 77.6 701 1 100.0 30
5/02/26 9:30p 41.9 42.3 41.6 79 35.9 0.0 NW 0.00 2.0 NW 41.9 41.6 41.6 29.873 0.00 0.00 0.481 0.000 78.5 30 44.5 76.6 703 1 100.0 30
5/02/26 10:00p 43.7 43.7 41.8 61 31.1 1.0 NW 0.50 4.0 NW 43.7 42.9 42.9 29.866 0.00 0.00 0.444 0.000 77.5 30 43.6 75.7 700 1 100.0 30
5/02/26 10:30p 42.5 43.9 42.5 73 34.5 0.0 NW 0.00 2.0 NW 42.5 42.0 42.0 29.867 0.00 0.00 0.469 0.000 76.5 31 43.6 74.9 699 1 100.0 30
5/02/26 11:00p 39.8 42.5 39.8 80 34.1 1.0 NW 0.50 2.0 NW 39.8 39.5 39.5 29.865 0.00 0.00 0.525 0.000 75.6 31 42.8 73.9 700 1 100.0 30
5/02/26 11:30p 38.5 39.8 38.5 83 33.8 0.0 NW 0.00 2.0 NW 38.5 38.3 38.3 29.862 0.00 0.00 0.552 0.000 74.9 31 42.2 73.2 701 1 100.0 30
5/03/26 12:00a 37.8 38.5 37.8 85 33.7 0.0 NW 0.00 2.0 NW 37.8 37.6 37.6 29.857 0.00 0.00 0.567 0.000 73.9 31 41.3 72.0 699 1 100.0 30
5/03/26 12:30a 37.6 37.9 37.6 87 34.1 1.0 NW 0.50 2.0 NW 37.6 37.4 37.4 29.850 0.00 0.00 0.571 0.000 73.2 31 40.7 71.1 698 1 100.0 30
5/03/26 1:00a 38.5 38.5 37.6 85 34.4 0.0 NW 0.00 1.0 NW 38.5 38.3 38.3 29.836 0.00 0.00 0.552 0.000 72.7 31 40.3 70.4 701 1 100.0 30
5/03/26 1:30a 38.8 38.8 38.3 81 33.5 0.0 NW 0.00 1.0 NW 38.8 38.5 38.5 29.829 0.00 0.00 0.546 0.000 72.0 32 40.5 69.5 696 1 100.0 30
5/03/26 2:00a 39.1 39.7 38.8 82 34.1 0.0 NW 0.00 1.0 NW 39.1 38.8 38.8 29.822 0.00 0.00 0.540 0.000 71.4 32 40.0 68.7 699 1 100.0 30
5/03/26 2:30a 37.8 39.1 37.8 85 33.7 0.0 --- 0.00 0.0 --- 37.8 37.6 37.6 29.814 0.00 0.00 0.567 0.000 70.9 32 39.6 68.0 700 1 100.0 30
5/03/26 3:00a 36.9 37.9 36.9 87 33.4 0.0 NW 0.00 2.0 NW 36.9 36.7 36.7 29.808 0.00 0.00 0.585 0.000 70.4 32 39.1 67.2 701 1 100.0 30
5/03/26 3:30a 36.2 37.0 36.2 88 33.0 0.0 NW 0.00 1.0 NW 36.2 36.1 36.1 29.802 0.00 0.00 0.600 0.000 69.9 32 38.7 66.5 697 1 100.0 30
5/03/26 4:00a 36.1 36.2 36.0 89 33.2 0.0 NW 0.00 1.0 NW 36.1 36.0 36.0 29.794 0.00 0.00 0.602 0.000 69.3 32 38.2 65.9 700 1 100.0 30
5/03/26 4:30a 35.6 36.2 35.5 90 33.0 0.0 NW 0.00 1.0 NW 35.6 35.5 35.5 29.787 0.00 0.00 0.613 0.000 68.9 32 37.8 65.6 700 1 100.0 30
5/03/26 5:00a 36.2 36.2 35.5 91 33.8 0.0 --- 0.00 0.0 --- 36.2 36.1 36.1 29.778 0.00 0.00 0.600 0.000 68.9 34 39.4 65.8 696 1 100.0 30
5/03/26 5:30a 37.3 37.3 36.2 91 34.9 0.0 NW 0.00 2.0 NW 37.3 37.2 37.2 29.780 0.00 0.00 0.577 0.000 69.7 33 39.3 66.5 700 1 100.0 30
5/03/26 6:00a 37.8 37.8 37.3 91 35.4 0.0 WNW 0.00 2.0 NW 37.8 37.7 37.7 29.778 0.00 0.00 0.567 0.000 70.4 33 39.9 67.3 700 1 100.0 30
5/03/26 6:30a 38.5 38.5 37.8 89 35.5 0.0 NW 0.00 2.0 NW 38.5 38.4 38.4 29.783 0.00 0.00 0.552 0.000 70.7 33 40.2 67.8 698 1 100.0 30
5/03/26 7:00a 39.3 39.3 38.5 87 35.8 0.0 WNW 0.00 3.0 NE 39.3 39.1 39.1 29.783 0.00 0.00 0.535 0.000 71.5 34 41.6 69.0 701 1 100.0 30
5/03/26 7:30a 40.4 40.4 39.3 83 35.6 0.0 NW 0.00 3.0 NE 40.4 40.2 40.2 29.784 0.00 0.00 0.512 0.000 72.6 33 41.8 70.5 698 1 100.0 30
5/03/26 8:00a 41.2 41.2 40.4 82 36.1 1.0 N 0.50 4.0 NW 41.2 40.9 40.9 29.785 0.00 0.00 0.496 0.000 73.3 33 42.4 71.5 700 1 100.0 30
5/03/26 8:30a 42.3 42.3 41.2 77 35.6 2.0 NW 1.00 6.0 W 42.3 41.9 41.9 29.779 0.00 0.00 0.473 0.000 73.9 32 42.2 72.1 697 1 100.0 30
5/03/26 9:00a 43.4 43.4 42.3 72 35.0 2.0 NW 1.00 6.0 NW 43.4 42.9 42.9 29.775 0.00 0.00 0.450 0.000 74.1 31 41.5 72.2 698 1 100.0 30
5/03/26 9:30a 45.1 45.1 43.4 65 34.0 2.0 NNW 1.00 15.0 NW 45.1 44.4 44.4 29.767 0.00 0.00 0.415 0.000 74.3 31 41.7 72.5 702 1 100.0 30
5/03/26 10:00a 46.7 46.7 45.1 57 32.3 5.0 NW 2.50 13.0 NE 44.3 45.8 43.4 29.765 0.00 0.00 0.381 0.000 74.9 30 41.4 73.1 702 1 100.0 30
5/03/26 10:30a 47.9 47.9 46.7 52 31.1 4.0 NW 2.00 13.0 NW 46.5 46.8 45.4 29.760 0.00 0.00 0.356 0.000 75.8 29 41.3 74.0 700 1 100.0 30
5/03/26 11:00a 49.4 49.5 48.0 48 30.5 5.0 NW 2.50 14.0 N 47.5 48.2 46.3 29.754 0.00 0.00 0.325 0.000 77.3 29 42.6 75.5 700 1 100.0 30
5/03/26 11:30a 47.6 50.6 47.6 50 29.9 6.0 NNW 3.00 14.0 W 44.8 46.4 43.6 29.759 0.00 0.00 0.363 0.000 77.4 28 41.7 75.5 700 1 100.0 30
5/03/26 12:00p 48.7 48.8 47.6 52 31.8 4.0 NW 2.00 11.0 NW 47.4 47.6 46.3 29.751 0.00 0.00 0.340 0.000 77.2 29 42.5 75.4 700 1 100.0 30
5/03/26 12:30p 48.2 48.8 47.9 49 29.9 5.0 NW 2.50 15.0 W 46.1 47.0 44.9 29.749 0.00 0.00 0.350 0.000 77.0 28 41.4 75.2 700 1 100.0 30
5/03/26 1:00p 48.8 48.9 48.1 48 30.0 5.0 NW 2.50 13.0 NNW 46.8 47.6 45.6 29.750 0.00 0.00 0.338 0.000 76.6 28 41.0 74.8 697 1 100.0 30
5/03/26 1:30p 48.9 49.0 48.4 48 30.1 5.0 NW 2.50 15.0 NE 46.9 47.7 45.7 29.758 0.00 0.00 0.335 0.000 76.5 28 41.0 74.7 699 1 100.0 30
5/03/26 2:00p 49.9 50.5 48.7 46 29.9 6.0 NW 3.00 17.0 NNW 47.6 48.6 46.3 29.758 0.00 0.00 0.315 0.000 77.2 27 40.6 75.3 700 1 100.0 30
5/03/26 2:30p 49.0 50.1 49.0 46 29.1 4.0 NNW 2.00 16.0 NW 47.7 47.7 46.4 29.756 0.00 0.00 0.333 0.000 76.2 27 39.8 74.3 701 1 100.0 30
5/03/26 3:00p 49.0 49.3 49.0 45 28.6 4.0 NW 2.00 13.0 NW 47.7 47.7 46.4 29.754 0.00 0.00 0.333 0.000 76.0 27 39.6 74.1 701 1 100.0 30
5/03/26 3:30p 49.6 49.7 49.0 46 29.6 4.0 NW 2.00 12.0 W 48.4 48.3 47.1 29.761 0.00 0.00 0.321 0.000 76.1 27 39.7 74.2 700 1 100.0 30
5/03/26 4:00p 49.3 49.7 49.2 45 28.8 4.0 NNW 2.00 14.0 WSW 48.1 48.0 46.8 29.759 0.00 0.00 0.327 0.000 76.5 27 40.0 74.6 699 1 100.0 30
5/03/26 4:30p 50.5 50.9 49.3 44 29.4 3.0 NNW 1.50 12.0 WNW 50.3 49.1 48.9 29.749 0.00 0.00 0.302 0.000 76.7 27 40.2 74.8 703 1 100.0 30
5/03/26 5:00p 50.4 51.5 50.3 43 28.7 4.0 NW 2.00 13.0 NW 49.3 48.9 47.8 29.764 0.00 0.00 0.304 0.000 77.8 27 41.1 75.8 699 1 100.0 30
5/03/26 5:30p 50.4 50.5 49.8 44 29.3 2.0 NW 1.00 8.0 NW 50.4 49.0 49.0 29.765 0.00 0.00 0.304 0.000 78.3 27 41.6 76.3 696 1 100.0 30
5/03/26 6:00p 50.1 51.0 50.1 44 29.0 2.0 NW 1.00 9.0 NNW 50.1 48.7 48.7 29.768 0.00 0.00 0.310 0.000 78.7 27 41.9 76.6 701 1 100.0 30
5/03/26 6:30p 49.8 50.1 49.6 43 28.2 2.0 NW 1.00 8.0 NW 49.8 48.4 48.4 29.767 0.00 0.00 0.317 0.000 79.0 27 42.2 76.9 698 1 100.0 30
5/03/26 7:00p 49.4 50.2 49.4 51 32.0 1.0 NNW 0.50 7.0 WNW 49.4 48.2 48.2 29.767 0.00 0.00 0.325 0.000 79.4 26 41.5 77.3 700 1 100.0 30
5/03/26 7:30p 44.5 49.4 44.5 60 31.5 0.0 NW 0.00 2.0 NW 44.5 43.7 43.7 29.778 0.00 0.00 0.427 0.000 79.5 26 41.6 77.4 699 1 100.0 30
5/03/26 8:00p 40.9 44.5 40.9 68 31.1 0.0 NW 0.00 2.0 NW 40.9 40.3 40.3 29.784 0.00 0.00 0.502 0.000 79.2 26 41.3 77.1 701 1 100.0 30
5/03/26 8:30p 38.8 40.9 38.8 73 30.9 0.0 NW 0.00 1.0 NW 38.8 38.3 38.3 29.795 0.00 0.00 0.546 0.000 78.8 26 41.0 76.7 700 1 100.0 30
5/03/26 9:00p 37.7 38.8 37.7 78 31.5 0.0 --- 0.00 0.0 --- 37.7 37.4 37.4 29.806 0.00 0.00 0.569 0.000 78.1 26 40.4 76.0 700 1 100.0 30
5/03/26 9:30p 36.9 37.7 36.9 82 31.9 0.0 --- 0.00 0.0 --- 36.9 36.6 36.6 29.816 0.00 0.00 0.585 0.000 77.0 26 39.5 75.1 699 1 100.0 30
5/03/26 10:00p 36.2 36.9 36.2 85 32.1 0.0 NW 0.00 2.0 NW 36.2 36.0 36.0 29.819 0.00 0.00 0.600 0.000 76.2 27 39.8 74.3 699 1 100.0 30
5/03/26 10:30p 35.2 36.2 35.1 84 30.9 0.0 NW 0.00 2.0 NW 35.2 35.0 35.0 29.817 0.00 0.00 0.621 0.000 75.0 27 38.7 73.0 697 1 100.0 30
5/03/26 11:00p 35.6 35.6 35.0 83 30.9 0.0 NW 0.00 2.0 NW 35.6 35.4 35.4 29.817 0.00 0.00 0.613 0.000 74.0 27 37.9 71.8 696 1 100.0 30
5/03/26 11:30p 36.6 36.6 35.6 77 30.1 0.0 NW 0.00 2.0 NW 36.6 36.2 36.2 29.825 0.00 0.00 0.592 0.000 73.0 27 37.0 70.5 702 1 100.0 30
5/04/26 12:00a 39.8 39.8 36.6 75 32.5 0.0 NW 0.00 3.0 NW 39.8 39.3 39.3 29.828 0.00 0.00 0.525 0.000 72.4 27 36.5 69.6 699 1 100.0 30
5/04/26 12:30a 41.2 41.2 39.8 69 31.8 0.0 W 0.00 2.0 W 41.2 40.6 40.6 29.826 0.00 0.00 0.496 0.000 72.0 28 37.1 69.1 699 1 100.0 30
5/04/26 1:00a 43.3 43.3 41.1 62 31.1 0.0 W 0.00 3.0 W 43.3 42.5 42.5 29.828 0.00 0.00 0.452 0.000 71.6 28 36.8 68.5 700 1 100.0 30
5/04/26 1:30a 45.1 45.1 43.3 66 34.4 1.0 W 0.50 6.0 W 45.1 44.4 44.4 29.824 0.00 0.00 0.415 0.000 71.3 28 36.5 68.1 701 1 100.0 30
5/04/26 2:00a 45.8 45.9 45.1 69 36.2 0.0 W 0.00 3.0 WSW 45.8 45.3 45.3 29.821 0.00 0.00 0.400 0.000 70.9 29 37.0 67.7 702 1 100.0 30
5/04/26 2:30a 45.9 46.1 45.8 70 36.7 0.0 ESE 0.00 3.0 ESE 45.9 45.4 45.4 29.822 0.00 0.00 0.398 0.000 70.5 29 36.7 67.1 699 1 100.0 30
5/04/26 3:00a 45.4 45.9 45.2 71 36.5 0.0 SSE 0.00 4.0 SSE 45.4 44.9 44.9 29.824 0.00 0.00 0.408 0.000 70.1 29 36.3 66.4 699 1 100.0 30
5/04/26 3:30a 43.8 45.4 43.7 75 36.4 0.0 SE 0.00 5.0 SSE 43.8 43.4 43.4 29.824 0.00 0.00 0.442 0.000 69.7 30 36.9 66.1 698 1 100.0 30
5/04/26 4:00a 44.8 46.3 43.6 72 36.3 2.0 SSE 1.00 8.0 SSE 44.8 44.3 44.3 29.820 0.00 0.00 0.421 0.000 69.4 30 36.6 65.8 701 1 100.0 30
5/04/26 4:30a 44.1 44.8 43.9 71 35.3 0.0 SSE 0.00 3.0 SSE 44.1 43.6 43.6 29.826 0.00 0.00 0.435 0.000 69.1 31 37.2 65.6 701 1 100.0 30
5/04/26 5:00a 46.2 46.3 44.2 70 37.0 4.0 SE 2.00 8.0 SE 44.4 45.7 43.9 29.821 0.00 0.00 0.392 0.000 68.9 31 37.0 65.4 701 1 100.0 30
5/04/26 5:30a 42.5 46.2 42.5 76 35.5 1.0 SSE 0.50 7.0 SE 42.5 42.1 42.1 29.817 0.00 0.00 0.469 0.000 69.8 31 37.8 66.3 699 1 100.0 30
5/04/26 6:00a 42.1 42.5 41.8 78 35.7 0.0 W 0.00 2.0 W 42.1 41.8 41.8 29.818 0.00 0.00 0.477 0.000 70.7 31 38.6 67.6 696 1 100.0 30
5/04/26 6:30a 44.9 44.9 42.1 71 36.1 1.0 SSE 0.50 5.0 SSE 44.9 44.4 44.4 29.826 0.00 0.00 0.419 0.000 72.9 30 39.6 70.7 700 1 100.0 30
5/04/26 7:00a 47.5 47.6 45.0 67 37.1 4.0 SSE 2.00 8.0 SSE 46.0 46.9 45.4 29.824 0.00 0.00 0.365 0.000 73.7 30 40.3 71.6 699 1 100.0 30
5/04/26 7:30a 47.5 47.7 47.0 68 37.5 8.0 SSE 4.00 12.0 SSE 43.5 46.9 42.9 29.828 0.00 0.00 0.365 0.000 74.8 30 41.3 73.0 701 1 100.0 30
5/04/26 8:00a 49.5 49.5 47.5 67 39.0 6.0 SSE 3.00 11.0 SSE 47.1 49.0 46.6 29.826 0.00 0.00 0.323 0.000 75.9 30 42.2 74.2 701 1 100.0 30
5/04/26 8:30a 53.6 53.6 49.5 57 38.7 4.0 SSE 2.00 10.0 SSE 53.0 52.2 51.6 29.808 0.00 0.00 0.238 0.000 76.4 30 42.7 74.7 703 1 100.0 30
5/04/26 9:00a 55.8 55.8 53.6 55 39.9 5.0 SSE 2.50 12.0 SSE 55.1 54.2 53.5 29.800 0.00 0.00 0.192 0.000 77.0 30 43.2 75.3 697 1 100.0 30
5/04/26 9:30a 57.8 57.9 55.9 51 39.8 4.0 SE 2.00 14.0 SSE 57.8 55.9 55.9 29.788 0.00 0.00 0.150 0.000 77.2 30 43.4 75.5 702 1 100.0 30
5/04/26 10:00a 60.9 60.9 57.9 45 39.4 4.0 SSE 2.00 15.0 SSE 60.9 58.6 58.6 29.782 0.00 0.00 0.085 0.000 77.4 30 43.5 75.6 700 1 100.0 30
5/04/26 10:30a 62.9 62.9 60.8 42 39.4 4.0 W 2.00 17.0 W 62.9 60.4 60.4 29.773 0.00 0.00 0.044 0.000 77.9 30 44.0 76.0 699 1 100.0 30
5/04/26 11:00a 63.3 63.5 62.9 43 40.4 4.0 W 2.00 15.0 WSW 63.3 60.9 60.9 29.775 0.00 0.00 0.035 0.000 78.4 30 44.4 76.5 702 1 100.0 30
5/04/26 11:30a 64.3 64.3 63.3 39 38.8 4.0 W 2.00 15.0 W 64.3 61.6 61.6 29.765 0.00 0.00 0.015 0.000 79.9 30 45.7 77.9 698 1 100.0 30
5/04/26 12:00p 64.6 65.6 64.3 40 39.7 5.0 WNW 2.50 18.0 W 64.6 62.1 62.1 29.758 0.00 0.00 0.008 0.000 83.2 28 46.7 80.9 702 1 100.0 30
5/04/26 12:30p 66.5 66.5 64.3 39 40.8 4.0 W 2.00 14.0 WSW 66.5 64.0 64.0 29.751 0.00 0.00 0.000 0.031 85.0 26 46.3 82.4 701 1 100.0 30
5/04/26 1:00p 66.8 67.5 66.3 40 41.7 4.0 W 2.00 16.0 W 66.8 64.4 64.4 29.746 0.00 0.00 0.000 0.038 81.2 29 45.9 79.1 702 1 100.0 30
5/04/26 1:30p 66.6 67.9 65.9 39 40.9 4.0 W 2.00 16.0 W 66.6 64.1 64.1 29.741 0.00 0.00 0.000 0.033 79.8 30 45.6 77.8 700 1 100.0 30
5/04/26 2:00p 67.8 67.9 66.6 38 41.3 6.0 WNW 3.00 15.0 WNW 67.8 65.3 65.3 29.736 0.00 0.00 0.000 0.058 79.8 30 45.6 77.8 697 1 100.0 30
5/04/26 2:30p 68.8 69.1 67.7 37 41.5 4.0 WNW 2.00 17.0 W 68.8 66.0 66.0 29.729 0.00 0.00 0.000 0.079 79.7 31 46.4 77.8 700 1 100.0 30
5/04/26 3:00p 68.7 69.6 68.5 38 42.1 3.0 W 1.50 13.0 W 68.7 66.1 66.1 29.723 0.00 0.00 0.000 0.077 79.9 31 46.6 78.0 703 1 100.0 30
5/04/26 3:30p 68.5 69.1 68.4 38 41.9 3.0 W 1.50 12.0 SSE 68.5 65.9 65.9 29.719 0.00 0.00 0.000 0.073 79.5 32 47.1 77.7 701 1 100.0 30
5/04/26 4:00p 68.6 69.0 68.2 39 42.6 3.0 SSE 1.50 10.0 W 68.6 66.1 66.1 29.717 0.00 0.00 0.000 0.075 79.3 32 46.9 77.5 700 1 100.0 30
5/04/26 4:30p 69.1 69.8 68.6 38 42.4 4.0 WNW 2.00 16.0 W 69.1 66.4 66.4 29.719 0.00 0.00 0.000 0.085 79.0 32 46.6 77.2 699 1 100.0 30
5/04/26 5:00p 69.4 69.6 69.1 37 42.0 4.0 W 2.00 14.0 WSW 69.4 66.6 66.6 29.712 0.00 0.00 0.000 0.092 78.8 33 47.3 77.1 696 1 100.0 30
5/04/26 5:30p 69.8 70.0 69.3 37 42.3 3.0 NW 1.50 12.0 W 69.8 67.0 67.0 29.708 0.00 0.00 0.000 0.100 78.6 33 47.1 76.9 701 1 100.0 30
5/04/26 6:00p 69.1 69.9 68.7 39 43.1 3.0 SSE 1.50 12.0 SE 69.1 66.5 66.5 29.703 0.00 0.00 0.000 0.085 78.3 33 46.8 76.6 699 1 100.0 30
5/04/26 6:30p 68.0 69.1 68.0 39 42.1 2.0 W 1.00 13.0 WNW 68.0 65.6 65.6 29.712 0.00 0.00 0.000 0.063 78.0 34 47.4 76.3 699 1 100.0 30
5/04/26 7:00p 67.4 68.0 67.4 40 42.2 1.0 W 0.50 4.0 W 67.4 65.0 65.0 29.718 0.00 0.00 0.000 0.050 77.7 34 47.1 76.1 697 1 100.0 30
5/04/26 7:30p 66.0 67.5 66.0 45 44.0 0.0 W 0.00 4.0 SSW 66.0 64.0 64.0 29.731 0.00 0.00 0.000 0.021 77.3 34 46.7 75.7 701 1 100.0 30
5/04/26 8:00p 64.1 66.0 64.1 48 44.0 0.0 ESE 0.00 3.0 ESE 64.1 62.1 62.1 29.739 0.00 0.00 0.019 0.000 77.1 34 46.6 75.5 699 1 100.0 30
5/04/26 8:30p 61.1 64.0 61.0 51 42.8 0.0 ESE 0.00 2.0 WSW 61.1 59.2 59.2 29.753 0.00 0.00 0.081 0.000 76.7 34 46.2 75.2 701 1 100.0 30
5/04/26 9:00p 61.7 61.7 60.9 53 44.4 1.0 ENE 0.50 9.0 ESE 61.7 59.9 59.9 29.770 0.00 0.00 0.069 0.000 76.4 34 45.9 74.9 698 1 100.0 30
5/04/26 9:30p 61.0 61.7 61.0 58 46.1 1.0 ESE 0.50 8.0 E 61.0 59.5 59.5 29.770 0.00 0.00 0.083 0.000 76.1 34 45.7 74.6 702 1 100.0 30
5/04/26 10:00p 59.9 61.1 59.9 59 45.5 2.0 SE 1.00 8.0 SE 59.9 58.4 58.4 29.777 0.00 0.00 0.106 0.000 75.8 35 46.2 74.4 701 1 100.0 30
5/04/26 10:30p 58.8 59.9 58.8 63 46.2 2.0 SE 1.00 10.0 SSE 58.8 57.6 57.6 29.779 0.00 0.00 0.129 0.000 75.5 35 45.9 74.1 700 1 100.0 30
5/04/26 11:00p 57.6 58.8 57.6 65 45.9 1.0 SE 0.50 9.0 SE 57.6 56.5 56.5 29.778 0.00 0.00 0.154 0.000 75.2 35 45.7 73.8 700 1 100.0 30
5/04/26 11:30p 56.2 57.6 56.2 66 45.0 0.0 SSE 0.00 5.0 S 56.2 55.1 55.1 29.781 0.00 0.00 0.183 0.000 74.9 35 45.4 73.5 698 1 100.0 30
5/05/26 12:00a 55.5 56.2 55.5 67 44.7 0.0 SE 0.00 4.0 SSE 55.5 54.5 54.5 29.785 0.00 0.00 0.198 0.000 74.7 35 45.2 73.3 699 1 100.0 30
5/05/26 12:30a 55.1 55.5 55.1 69 45.1 1.0 SE 0.50 5.0 SSE 55.1 54.2 54.2 29.792 0.00 0.00 0.206 0.000 74.3 35 44.9 72.8 699 1 100.0 30
5/05/26 1:00a 55.3 55.5 55.0 72 46.4 6.0 SSE 3.00 12.0 SSE 54.0 54.6 53.3 29.786 0.00 0.00 0.202 0.000 74.0 35 44.6 72.5 701 1 100.0 30
5/05/26 1:30a 54.6 55.3 54.5 75 46.8 9.0 SSE 4.50 14.0 SSE 51.3 54.0 50.7 29.785 0.00 0.00 0.217 0.000 73.5 36 44.9 72.0 699 1 100.0 30
5/05/26 2:00a 52.7 54.6 52.7 76 45.3 3.0 SSE 1.50 9.0 SE 52.7 52.3 52.3 29.776 0.00 0.00 0.256 0.000 73.2 36 44.6 71.6 700 1 100.0 30
5/05/26 2:30a 53.7 53.7 52.3 72 44.9 1.0 SE 0.50 7.0 W 53.7 53.0 53.0 29.771 0.00 0.00 0.235 0.000 72.9 36 44.4 71.2 699 1 100.0 30
5/05/26 3:00a 54.9 55.0 53.7 71 45.7 1.0 SE 0.50 7.0 SSE 54.9 54.1 54.1 29.768 0.00 0.00 0.210 0.000 72.8 36 44.3 71.1 700 1 100.0 30
5/05/26 3:30a 55.0 55.0 54.8 70 45.4 1.0 SE 0.50 6.0 W 55.0 54.2 54.2 29.764 0.00 0.00 0.208 0.000 72.5 36 44.0 70.6 701 1 100.0 30
5/05/26 4:00a 55.2 55.2 54.9 71 46.0 1.0 S 0.50 5.0 SSE 55.2 54.4 54.4 29.766 0.00 0.00 0.204 0.000 72.4 36 43.9 70.5 698 1 100.0 30
5/05/26 4:30a 54.8 55.2 54.8 72 45.9 1.0 W 0.50 6.0 W 54.8 54.1 54.1 29.768 0.00 0.00 0.213 0.000 72.1 36 43.7 70.0 700 1 100.0 30
5/05/26 5:00a 54.3 54.8 54.3 73 45.8 1.0 SSE 0.50 6.0 SSE 54.3 53.6 53.6 29.758 0.00 0.00 0.223 0.000 72.0 36 43.6 69.9 700 1 100.0 30
5/05/26 5:30a 53.6 54.3 53.6 74 45.5 1.0 WNW 0.50 3.0 ESE 53.6 53.0 53.0 29.764 0.00 0.00 0.238 0.000 71.8 36 43.4 69.6 700 1 100.0 30
5/05/26 6:00a 52.5 53.6 52.5 77 45.5 0.0 ESE 0.00 4.0 SE 52.5 52.1 52.1 29.762 0.00 0.00 0.260 0.000 71.7 36 43.3 69.5 700 1 100.0 30
5/05/26 6:30a 53.6 53.6 52.5 78 46.9 1.0 SE 0.50 7.0 SSE 53.6 53.2 53.2 29.778 0.00 0.00 0.238 0.000 72.4 35 43.2 70.4 702 1 100.0 30
5/05/26 7:00a 55.9 55.9 53.6 75 48.1 3.0 SSE 1.50 9.0 SSE 55.9 55.3 55.3 29.784 0.00 0.00 0.190 0.000 72.7 35 43.5 70.8 702 1 100.0 30
5/05/26 7:30a 56.4 56.5 55.9 74 48.2 3.0 SSE 1.50 11.0 SE 56.4 55.7 55.7 29.776 0.00 0.00 0.179 0.000 73.0 35 43.7 71.3 700 1 100.0 30
5/05/26 8:00a 57.6 57.6 56.3 72 48.6 3.0 SE 1.50 9.0 SSE 57.6 56.8 56.8 29.772 0.00 0.00 0.154 0.000 73.2 35 43.9 71.5 701 1 100.0 30
5/05/26 8:30a 59.3 59.3 57.6 70 49.5 4.0 SSE 2.00 10.0 SSE 59.3 58.4 58.4 29.770 0.00 0.00 0.119 0.000 73.9 35 44.5 72.4 698 1 100.0 30
5/05/26 9:00a 60.6 60.6 59.3 69 50.4 5.0 SE 2.50 10.0 SSE 60.6 59.8 59.8 29.771 0.00 0.00 0.092 0.000 74.8 35 45.3 73.4 699 1 100.0 30
5/05/26 9:30a 60.6 60.7 60.2 71 51.1 6.0 SSE 3.00 12.0 SSE 60.3 59.9 59.6 29.772 0.00 0.00 0.092 0.000 75.5 35 45.9 74.1 702 1 100.0 30
5/05/26 10:00a 64.2 64.2 60.7 65 52.2 5.0 SSE 2.50 11.0 SSE 64.2 63.5 63.5 29.768 0.00 0.00 0.017 0.000 76.1 35 46.5 74.7 699 1 100.0 30
5/05/26 10:30a 68.5 68.5 64.2 57 52.7 5.0 SSE 2.50 11.0 SSE 68.5 67.8 67.8 29.752 0.00 0.00 0.000 0.073 76.6 36 47.6 75.2 699 1 100.0 30
5/05/26 11:00a 71.9 72.0 68.6 54 54.3 5.0 SSE 2.50 14.0 SE 71.9 71.3 71.3 29.743 0.00 0.00 0.000 0.144 77.4 35 47.6 75.9 696 1 100.0 30
5/05/26 11:30a 73.6 73.6 71.6 51 54.4 5.0 SE 2.50 16.0 SSE 73.6 73.3 73.3 29.728 0.00 0.00 0.000 0.179 78.3 35 48.4 76.7 700 1 100.0 30
5/05/26 12:00p 73.9 74.7 73.6 52 55.2 6.0 SE 3.00 14.0 SSE 73.9 73.8 73.8 29.707 0.00 0.00 0.000 0.185 81.6 34 50.5 79.8 701 1 100.0 30
5/05/26 12:30p 74.4 75.7 73.7 51 55.1 7.0 SE 3.50 22.0 SSE 74.4 74.3 74.3 29.692 0.00 0.00 0.000 0.196 84.0 32 51.0 82.0 701 1 100.0 30
5/05/26 1:00p 76.9 76.9 73.0 46 54.5 8.0 SE 4.00 24.0 SSE 76.4 76.4 75.9 29.680 0.00 0.00 0.000 0.248 80.9 34 49.9 79.1 701 1 100.0 30
5/05/26 1:30p 77.5 78.2 77.0 46 55.1 6.0 SE 3.00 17.0 SSE 77.5 77.0 77.0 29.683 0.00 0.00 0.000 0.260 80.0 35 49.9 78.3 703 1 100.0 30
5/05/26 2:00p 77.7 78.4 77.4 46 55.3 6.0 SE 3.00 19.0 SSE 77.7 77.2 77.2 29.661 0.00 0.00 0.000 0.265 79.8 36 50.5 78.2 700 1 100.0 30
5/05/26 2:30p 77.7 77.9 76.6 46 55.3 6.0 SE 3.00 21.0 SSE 77.7 77.2 77.2 29.650 0.00 0.00 0.000 0.265 79.7 36 50.4 78.1 703 1 100.0 30
5/05/26 3:00p 79.2 79.2 77.7 38 51.4 5.0 SE 2.50 16.0 SSE 79.2 77.8 77.8 29.639 0.00 0.00 0.000 0.296 79.9 37 51.3 78.4 701 1 100.0 30
5/05/26 3:30p 79.7 80.3 79.2 38 51.8 5.0 SSE 2.50 17.0 SSE 79.7 78.3 78.3 29.632 0.00 0.00 0.000 0.306 80.0 36 50.6 78.4 700 1 100.0 30
5/05/26 4:00p 79.3 79.8 79.2 39 52.2 5.0 SE 2.50 22.0 SE 79.3 78.0 78.0 29.620 0.00 0.00 0.000 0.298 80.0 36 50.6 78.4 701 1 100.0 30
5/05/26 4:30p 79.7 79.8 79.1 37 51.1 4.0 SE 2.00 15.0 SE 79.7 78.2 78.2 29.621 0.00 0.00 0.000 0.306 79.9 36 50.6 78.3 697 1 100.0 30
5/05/26 5:00p 79.5 80.1 79.4 39 52.4 4.0 SE 2.00 16.0 S 79.5 78.2 78.2 29.630 0.00 0.00 0.000 0.302 80.0 37 51.4 78.5 700 1 100.0 30
5/05/26 5:30p 75.8 79.4 75.8 50 55.8 5.0 SE 2.50 14.0 SSE 75.8 75.7 75.7 29.635 0.00 0.00 0.000 0.225 80.0 37 51.4 78.5 702 1 100.0 30
5/05/26 6:00p 74.2 75.8 74.2 53 56.0 4.0 SE 2.00 20.0 SSE 74.2 74.2 74.2 29.654 0.00 0.00 0.000 0.192 79.8 38 51.9 78.4 700 1 100.0 30
5/05/26 6:30p 73.5 74.3 73.5 54 55.8 3.0 SE 1.50 13.0 SSE 73.5 73.4 73.4 29.676 0.00 0.00 0.000 0.177 79.4 38 51.6 78.0 700 1 100.0 30
5/05/26 7:00p 71.7 73.8 71.7 59 56.6 2.0 NW 1.00 5.0 N 71.7 71.4 71.4 29.704 0.00 0.00 0.000 0.140 79.2 39 52.1 77.9 702 1 100.0 30
5/05/26 7:30p 69.9 71.7 69.9 61 55.8 1.0 NW 0.50 4.0 NW 69.9 69.4 69.4 29.730 0.00 0.00 0.000 0.102 79.0 39 51.9 77.7 702 1 100.0 30
5/05/26 8:00p 69.0 69.9 68.9 66 57.2 0.0 WNW 0.00 2.0 WNW 69.0 69.1 69.1 29.742 0.00 0.00 0.000 0.083 78.9 40 52.5 77.7 700 1 100.0 30
5/05/26 8:30p 66.2 68.9 66.2 69 55.7 1.0 SSE 0.50 5.0 SSE 66.2 66.1 66.1 29.741 0.00 0.00 0.000 0.025 78.6 40 52.3 77.4 701 1 100.0 30
5/05/26 9:00p 65.7 66.2 65.4 73 56.8 1.0 SE 0.50 6.0 SSE 65.7 65.8 65.8 29.749 0.00 0.00 0.000 0.015 78.5 40 52.2 77.3 699 1 100.0 30
5/05/26 9:30p 63.8 65.8 63.8 77 56.4 2.0 SSE 1.00 7.0 SSE 63.8 63.9 63.9 29.753 0.00 0.00 0.025 0.000 78.2 41 52.6 77.1 700 1 100.0 30
5/05/26 10:00p 65.4 65.4 63.8 71 55.7 1.0 W 0.50 4.0 W 65.4 65.3 65.3 29.764 0.00 0.00 0.000 0.008 78.0 41 52.4 76.9 699 1 100.0 30
5/05/26 10:30p 65.2 65.6 65.2 69 54.8 1.0 ESE 0.50 4.0 SSE 65.2 64.9 64.9 29.757 0.00 0.00 0.000 0.004 77.8 41 52.2 76.7 701 1 100.0 30
5/05/26 11:00p 64.9 65.2 64.9 69 54.5 1.0 W 0.50 6.0 W 64.9 64.5 64.5 29.761 0.00 0.00 0.002 0.000 77.6 41 52.0 76.5 701 1 100.0 30
5/05/26 11:30p 64.0 64.9 64.0 69 53.6 1.0 SE 0.50 7.0 SSE 64.0 63.5 63.5 29.767 0.00 0.00 0.021 0.000 77.3 41 51.8 76.3 700 1 100.0 30
5/06/26 12:00a 63.1 64.1 63.1 71 53.5 1.0 SE 0.50 6.0 ESE 63.1 62.7 62.7 29.763 0.00 0.00 0.040 0.000 77.1 41 51.6 76.1 698 1 100.0 30
5/06/26 12:30a 62.3 63.1 62.3 71 52.8 0.0 W 0.00 4.0 SSE 62.3 61.7 61.7 29.775 0.00 0.00 0.056 0.000 76.9 41 51.4 75.9 699 1 100.0 30
5/06/26 1:00a 61.5 62.3 61.5 73 52.8 1.0 SSE 0.50 6.0 SSE 61.5 61.0 61.0 29.765 0.00 0.00 0.073 0.000 76.6 41 51.1 75.6 702 1 100.0 30
5/06/26 1:30a 60.7 61.5 60.7 74 52.4 0.0 W 0.00 3.0 ESE 60.7 60.2 60.2 29.765 0.00 0.00 0.090 0.000 76.4 41 51.0 75.4 699 1 100.0 30
5/06/26 2:00a 60.4 60.7 60.4 76 52.8 1.0 SW 0.50 4.0 WSW 60.4 60.0 60.0 29.762 0.00 0.00 0.096 0.000 76.2 41 50.8 75.2 699 1 100.0 30
5/06/26 2:30a 59.7 60.4 59.7 77 52.5 0.0 NW 0.00 2.0 NW 59.7 59.3 59.3 29.763 0.00 0.00 0.110 0.000 76.0 41 50.6 75.0 698 1 100.0 30
5/06/26 3:00a 59.1 59.6 59.1 79 52.6 0.0 W 0.00 2.0 SW 59.1 58.8 58.8 29.763 0.00 0.00 0.123 0.000 75.7 41 50.3 74.7 700 1 100.0 30
5/06/26 3:30a 57.2 59.1 57.2 83 52.1 0.0 WSW 0.00 2.0 W 57.2 57.0 57.0 29.761 0.00 0.00 0.162 0.000 75.4 41 50.1 74.4 701 1 100.0 30
5/06/26 4:00a 55.7 57.2 55.7 86 51.6 0.0 N 0.00 1.0 N 55.7 55.6 55.6 29.756 0.00 0.00 0.194 0.000 75.1 41 49.8 74.1 699 1 100.0 30
5/06/26 4:30a 54.9 55.7 54.9 88 51.4 0.0 N 0.00 1.0 N 54.9 54.9 54.9 29.754 0.00 0.00 0.210 0.000 74.8 41 49.5 73.8 698 1 100.0 30
5/06/26 5:00a 55.4 55.4 54.9 88 51.9 0.0 N 0.00 2.0 NNE 55.4 55.4 55.4 29.746 0.00 0.00 0.200 0.000 74.6 41 49.3 73.6 700 1 100.0 30
5/06/26 5:30a 56.6 56.6 55.3 87 52.8 3.0 SSE 1.50 11.0 SE 56.6 56.5 56.5 29.746 0.00 0.00 0.175 0.000 74.4 41 49.2 73.3 703 1 100.0 30
5/06/26 6:00a 56.6 56.8 56.5 88 53.1 7.0 SSE 3.50 12.0 SSE 55.1 56.6 55.1 29.750 0.00 0.00 0.175 0.000 74.1 41 48.9 73.0 698 1 100.0 30
5/06/26 6:30a 56.5 56.6 56.4 89 53.3 8.0 SSE 4.00 13.0 SSE 54.3 56.5 54.3 29.750 0.00 0.00 0.177 0.000 74.1 42 49.5 73.1 698 1 100.0 30
5/06/26 7:00a 57.0 57.0 56.5 89 53.8 7.0 SSE 3.50 14.0 SSE 55.6 57.0 55.6 29.759 0.00 0.00 0.167 0.000 73.8 42 49.3 72.8 699 1 100.0 30
5/06/26 7:30a 57.5 57.5 57.0 89 54.3 6.0 SSE 3.00 10.0 SSE 56.6 57.6 56.7 29.744 0.00 0.00 0.156 0.000 73.7 42 49.2 72.7 697 1 100.0 30